TimeEDT,TemperatureF,Dew PointF,Humidity,Sea Level PressureIn,VisibilityMPH,Wind Direction,Wind SpeedMPH,Gust SpeedMPH,PrecipitationIn,Events,Conditions,WindDirDegrees,DateUTC
12:53 AM,60.1,57.9,93,30.12,10.0,SW,4.6,-,N/A,,Clear,220,2013-07-31 04:53:00
1:53 AM,59.0,55.9,90,30.12,10.0,SSW,3.5,-,N/A,,Partly Cloudy,200,2013-07-31 05:53:00
3:08 AM,55.4,53.6,94,30.11,2.0,Calm,Calm,-,N/A,,Clear,0,2013-07-31 07:08:00
3:15 AM,55.4,55.4,100,30.11,1.2,Calm,Calm,-,N/A,,Partly Cloudy,0,2013-07-31 07:15:00
3:18 AM,55.4,55.4,100,30.11,0.8,Calm,Calm,-,N/A,,Mist,0,2013-07-31 07:18:00
3:27 AM,55.4,55.4,100,30.11,1.2,Calm,Calm,-,N/A,,Partly Cloudy,0,2013-07-31 07:27:00
3:30 AM,55.4,55.4,100,30.11,2.0,Calm,Calm,-,N/A,,Partly Cloudy,0,2013-07-31 07:30:00
3:41 AM,55.4,53.6,94,30.11,1.2,Calm,Calm,-,N/A,,Mostly Cloudy,0,2013-07-31 07:41:00
3:51 AM,55.4,53.6,94,30.11,0.8,Calm,Calm,-,N/A,,Mist,0,2013-07-31 07:51:00
3:53 AM,55.0,53.1,93,30.12,1.0,Calm,Calm,-,N/A,,Mist,0,2013-07-31 07:53:00
3:56 AM,55.4,53.6,94,30.11,2.5,Calm,Calm,-,N/A,,Mostly Cloudy,0,2013-07-31 07:56:00
4:02 AM,55.4,53.6,94,30.11,1.5,Calm,Calm,-,N/A,,Scattered Clouds,0,2013-07-31 08:02:00
4:05 AM,53.6,53.6,100,30.11,1.0,Calm,Calm,-,N/A,,Mist,0,2013-07-31 08:05:00
4:11 AM,53.6,51.8,94,30.11,1.5,Calm,Calm,-,N/A,,Scattered Clouds,0,2013-07-31 08:11:00
4:17 AM,53.6,53.6,100,30.11,1.0,Calm,Calm,-,N/A,,Mist,0,2013-07-31 08:17:00
4:24 AM,53.6,53.6,100,30.11,0.2,Calm,Calm,-,N/A,Fog,Fog,0,2013-07-31 08:24:00
4:41 AM,53.6,51.8,94,30.12,1.8,Calm,Calm,-,N/A,,Partly Cloudy,0,2013-07-31 08:41:00
4:48 AM,53.6,51.8,94,30.12,10.0,Calm,Calm,-,N/A,,Clear,0,2013-07-31 08:48:00
4:53 AM,54.0,52.0,93,30.12,7.0,Calm,Calm,-,N/A,,Partly Cloudy,0,2013-07-31 08:53:00
4:57 AM,53.6,53.6,100,30.12,1.8,Calm,Calm,-,N/A,,Partly Cloudy,0,2013-07-31 08:57:00
5:07 AM,53.6,51.8,94,30.12,4.0,Calm,Calm,-,N/A,,Partly Cloudy,0,2013-07-31 09:07:00
5:53 AM,53.1,52.0,96,30.12,10.0,Calm,Calm,-,N/A,,Clear,0,2013-07-31 09:53:00
6:12 AM,53.6,51.8,94,30.12,1.0,Calm,Calm,-,N/A,,Clear,0,2013-07-31 10:12:00
6:19 AM,51.8,51.8,100,30.13,0.8,Calm,Calm,-,N/A,,Clear,0,2013-07-31 10:19:00
6:22 AM,51.8,51.8,100,30.13,1.5,Calm,Calm,-,N/A,,Clear,0,2013-07-31 10:22:00
6:24 AM,53.6,51.8,94,30.13,4.0,Calm,Calm,-,N/A,,Clear,0,2013-07-31 10:24:00
6:53 AM,59.0,57.0,93,30.13,10.0,SSW,3.5,-,N/A,,Clear,210,2013-07-31 10:53:00
7:53 AM,63.0,60.1,90,30.13,10.0,SSW,6.9,-,N/A,,Clear,210,2013-07-31 11:53:00
8:53 AM,66.9,62.1,84,30.12,10.0,SW,6.9,-,N/A,,Clear,220,2013-07-31 12:53:00
9:53 AM,70.0,62.1,76,30.12,10.0,Variable,4.6,-,N/A,,Clear,0,2013-07-31 13:53:00
10:53 AM,73.9,62.1,66,30.11,10.0,SSW,6.9,-,N/A,,Clear,200,2013-07-31 14:53:00
11:53 AM,77.0,59.0,54,30.10,10.0,South,8.1,-,N/A,,Clear,170,2013-07-31 15:53:00
12:53 PM,78.1,59.0,52,30.09,10.0,SSW,9.2,-,N/A,,Clear,200,2013-07-31 16:53:00
1:53 PM,78.1,55.0,45,30.06,10.0,SW,3.5,-,N/A,,Clear,220,2013-07-31 17:53:00
2:53 PM,79.0,59.0,50,30.06,10.0,SW,6.9,-,N/A,,Mostly Cloudy,220,2013-07-31 18:53:00
3:53 PM,79.0,60.1,52,30.04,10.0,West,11.5,16.1,N/A,,Mostly Cloudy,260,2013-07-31 19:53:00
4:53 PM,79.0,55.9,45,30.02,10.0,West,6.9,-,N/A,,Clear,260,2013-07-31 20:53:00
5:53 PM,78.1,57.0,48,30.01,10.0,WSW,6.9,-,N/A,,Clear,240,2013-07-31 21:53:00
6:53 PM,75.0,57.0,53,30.00,10.0,SW,4.6,-,N/A,,Clear,230,2013-07-31 22:53:00
7:53 PM,71.1,59.0,66,30.00,10.0,SW,4.6,-,N/A,,Clear,220,2013-07-31 23:53:00
8:53 PM,64.9,59.0,81,30.00,10.0,Calm,Calm,-,N/A,,Clear,0,2013-08-01 00:53:00
9:53 PM,64.0,61.0,90,30.01,10.0,Calm,Calm,-,N/A,,Clear,0,2013-08-01 01:53:00
10:53 PM,64.9,61.0,87,30.00,10.0,Calm,Calm,-,N/A,,Scattered Clouds,0,2013-08-01 02:53:00
11:53 PM,64.9,61.0,87,29.98,10.0,Calm,Calm,-,N/A,,Clear,0,2013-08-01 03:53:00